Date,TemperatureHighF,TemperatureAvgF,TemperatureLowF,DewpointHighF,DewpointAvgF,DewpointLowF,HumidityHigh,HumidityAvg,HumidityLow,PressureMaxIn,PressureMinIn,WindSpeedMaxMPH,WindSpeedAvgMPH,GustSpeedMaxMPH,PrecipitationSumIn
2013-1-1,14.0,-2.4,-22.0,12.0,-6.9,-27.0,90,80,70,0.00,40.00,12,3,18,0.00
2013-1-2,21.0,17.8,13.0,19.0,16.0,10.0,93,91,89,0.00,40.00,8,4,12,0.00
2013-1-3,21.0,15.2,9.0,19.0,8.6,1.0,91,76,43,0.00,40.00,12,8,19,0.00
2013-1-4,33.0,16.9,1.0,19.0,11.4,-2.0,90,80,55,0.00,40.00,12,4,19,0.00
2013-1-5,34.0,14.3,-4.0,23.0,9.9,-8.0,93,84,57,0.00,40.00,11,4,16,0.00
2013-1-6,24.0,16.0,11.0,16.0,8.7,1.0,93,74,46,0.00,40.00,10,4,16,0.00
2013-1-7,39.0,25.5,15.0,23.0,17.2,7.0,88,72,49,0.00,40.00,14,7,24,0.00
2013-1-8,33.0,21.8,0.0,27.0,17.1,-2.0,93,82,63,0.00,40.00,10,4,16,0.00
2013-1-9,31.0,25.6,12.0,27.0,19.5,9.0,90,78,65,0.00,40.00,24,9,37,0.00
2013-1-10,44.0,33.2,20.0,32.0,19.3,12.0,94,60,32,0.00,40.00,17,9,28,0.00
2013-1-11,36.0,34.3,33.0,36.0,33.7,32.0,96,96,94,0.00,40.00,8,5,13,0.00
2013-1-12,37.0,18.0,4.0,36.0,12.5,-2.0,96,79,62,0.00,40.00,17,8,24,0.00
2013-1-13,9.0,3.4,-1.0,0.0,-2.6,-6.0,83,75,61,0.00,40.00,9,4,16,0.00
2013-1-14,12.0,4.5,-1.0,0.0,-2.6,-6.0,83,72,52,0.00,40.00,10,5,17,0.00
2013-1-15,23.0,14.2,6.0,9.0,4.4,0.0,80,66,46,0.00,40.00,16,7,22,0.00
2013-1-16,25.0,15.5,-3.0,23.0,7.5,-13.0,93,71,51,0.00,40.00,16,10,24,0.00
2013-1-17,8.0,-2.3,-12.0,-4.0,-10.5,-18.0,78,67,53,0.00,40.00,12,4,19,0.00
2013-1-18,18.0,12.1,-5.0,16.0,7.8,-9.0,89,83,78,0.00,40.00,9,4,12,0.01
2013-1-19,26.0,13.9,-4.0,23.0,9.4,-9.0,93,82,63,0.00,40.00,23,9,34,0.01
2013-1-20,1.0,-7.5,-18.0,-9.0,-13.8,-22.0,80,73,57,0.00,40.00,13,6,21,0.01
2013-1-21,-9.0,-16.0,-22.0,-18.0,-22.9,-27.0,77,71,57,0.00,40.00,14,8,23,0.00
2013-1-22,0.0,-14.9,-31.0,-13.0,-22.5,-36.0,77,69,51,0.00,40.00,10,3,15,0.00
2013-1-23,2.0,-6.6,-18.0,-4.0,-13.9,-27.0,81,70,53,0.00,40.00,19,6,28,0.00
2013-1-24,5.0,-12.9,-32.0,0.0,-20.1,-38.0,78,69,54,0.00,40.00,12,4,19,0.00
2013-1-25,13.0,6.1,-11.0,7.0,0.2,-15.0,85,76,65,0.00,40.00,11,5,18,0.01
2013-1-26,16.0,-1.1,-23.0,7.0,-7.8,-27.0,84,74,58,0.00,40.00,11,4,18,0.00
2013-1-27,31.0,18.5,-2.0,25.0,10.8,-6.0,87,73,49,0.00,40.00,10,5,14,0.00
2013-1-28,30.0,27.4,19.0,28.0,25.6,18.0,96,92,82,0.00,40.00,7,3,11,0.00
2013-1-29,31.0,27.5,20.0,28.0,24.7,16.0,96,90,75,0.00,40.00,12,6,21,0.00
2013-1-30,20.0,10.7,4.0,16.0,5.0,-2.0,86,77,67,0.00,40.00,16,10,24,0.00
2013-1-31,4.0,-1.2,-14.0,-2.0,-9.8,-20.0,77,67,60,0.00,40.00,16,10,26,0.00